Location: Caltech
(34.1382°N, 118.1253°W)
Time: 19:02:17
(UTC-08:00)

OAO 2 Rocket - Visible Passes

Search period start: 20 February 2018 00:00
Search period end: 02 March 2018 00:00
Orbit: 677 x 746 km, 35.0° (Epoch: 19 February)

Date Brightness Start Highest point End Pass type
(mag) Time Alt. Az. Time Alt. Az. Time Alt. Az.
20 Feb 3.6 18:09:25 10° SW 18:14:13 53° SSE 18:18:53 11° E visible
20 Feb 3.8 19:53:59 10° W 19:57:51 55° W 19:57:51 55° W visible
21 Feb 3.2 18:56:13 10° W 19:01:10 89° S 19:03:24 33° E visible
21 Feb 5.8 20:41:05 10° W 20:42:22 18° W 20:42:22 18° W visible
22 Feb 3.4 17:58:29 10° WSW 18:03:27 75° SSE 18:08:22 10° E visible
22 Feb 3.3 19:43:19 10° W 19:47:54 74° NW 19:47:54 74° NW visible
23 Feb 3.2 18:45:31 10° W 18:50:30 81° N 18:53:25 25° E visible
23 Feb 5.3 20:30:24 10° W 20:32:23 24° W 20:32:23 24° W visible
24 Feb 3.0 19:32:38 10° W 19:37:37 86° N 19:37:54 79° E visible
25 Feb 3.3 18:34:51 10° W 18:39:51 81° N 18:43:27 19° E visible
25 Feb 4.9 20:19:43 10° W 20:22:25 31° W 20:22:25 31° W visible
26 Feb 3.2 19:21:56 10° W 19:26:55 78° SSW 19:27:59 54° ESE visible
27 Feb 3.3 18:24:09 10° W 18:29:11 89° NNE 18:33:35 13° E visible
27 Feb 4.6 20:09:07 10° W 20:12:34 35° WSW 20:12:34 35° WSW visible
28 Feb 3.6 19:11:16 10° W 19:16:09 57° SSW 19:18:13 32° SE visible
28 Feb 6.2 20:57:06 10° WSW 20:57:12 10° WSW 20:57:12 10° WSW visible
01 Mar 3.5 18:13:26 10° W 18:18:27 73° SSW 18:23:24 10° ESE visible
01 Mar 4.8 19:58:44 10° W 20:02:52 26° SSW 20:02:55 26° SSW visible
